Karlovy Vary, Czech Republic

3:34 AM CET on February 14, 2016 (GMT +0100)
Karlovy Vary

Weather History for LKKV - October, 2013

Change the Weather History Date:

Friday, October 4, 2013

  Actual Average (EDQM) Record (EDQM)
Temperature  
Mean Temperature 38 °F -  
Max Temperature 50 °F 54 °F 69 °F (2011)
Min Temperature 26 °F 43 °F 33 °F (2013)
Degree Days  
Heating Degree Days 27    
Moisture  
Dew Point 31 °F    
Average Humidity 68    
Maximum Humidity 93    
Minimum Humidity 50    
Precipitation  
Precipitation 0.00 in - - ()
Sea Level Pressure  
Sea Level Pressure 30.24 in    
Wind  
Wind Speed 8 mph ()    
Max Wind Speed 15 mph    
Max Gust Speed -    
Visibility 6.2 miles    
Events      
Averages and records for this station are not official NWS values.
T = Trace of Precipitation, MM = Missing Value Source: Averaged Metar Reports

Daily Weather History Graph

Daily Weather History Graph

Search for Another Location

Airport or City:

Trip Planner

Search our weather history database for the weather conditions in past years. The results will help you decide how hot, cold, wet, or windy it might be!

Date:

Astronomy

Oct. 04, 2013 Rise Set
Actual Time 7:13 AM CEST 6:40 PM CEST
Civil Twilight 6:40 AM CEST 7:12 PM CEST
Nautical Twilight 6:03 AM CEST 7:49 PM CEST
Astronomical Twilight 5:24 AM CEST 8:28 PM CEST
Moon 6:30 AM CEST (10/4) 6:10 PM CEST (10/4)
Length of Visible Light 12h 31m
Length of Day
11h 26m
Waning Crescent, 0% of the Moon is Illuminated
Oct 4
Waning Crescent
Oct 5
New
Oct 12
First Quarter
Oct 19
Full
Oct 27
Last Quarter

Hourly Weather History & Observations

Time (CEST) Temp. Windchill Dew Point Humidity Pressure Visibility Wind Dir Wind Speed Gust Speed Precip Events Conditions
12:00 AM 35.6 °F 29.2 °F 26.6 °F 70% 30.30 in - East 8.1 mph - N/A   Clear
1:00 AM 33.8 °F 27.0 °F 26.6 °F 75% 30.30 in - East 8.1 mph - N/A   Clear
2:00 AM 32.0 °F 24.2 °F 26.6 °F 80% 30.27 in - ENE 9.2 mph - N/A   Clear
3:00 AM 30.2 °F 22.6 °F 26.6 °F 86% 30.27 in - ENE 8.1 mph - N/A   Clear
4:00 AM 30.2 °F 23.4 °F 26.6 °F 86% 30.27 in - ENE 6.9 mph - N/A   Clear
5:00 AM 28.4 °F 23.3 °F 24.8 °F 86% 30.27 in - NE 4.6 mph - N/A   Clear
7:00 AM 26.6 °F 20.0 °F 24.8 °F 93% 30.24 in - NE 5.8 mph - N/A   Clear
8:00 AM 30.2 °F 23.4 °F 26.6 °F 86% 30.27 in - NE 6.9 mph - N/A   Clear
8:30 AM 32.0 °F 25.6 °F 28.4 °F 87% 30.27 in - NE 6.9 mph - N/A   Clear
9:00 AM 33.8 °F 27.0 °F 28.4 °F 81% 30.27 in - NE 8.1 mph - N/A   Clear
9:30 AM 35.6 °F 29.9 °F 30.2 °F 81% 30.27 in - NE 6.9 mph - N/A   Clear
10:00 AM 35.6 °F 29.2 °F 30.2 °F 81% 30.27 in - NE 8.1 mph - N/A   Clear
10:30 AM 37.4 °F 30.8 °F 30.2 °F 75% 30.24 in - NE 9.2 mph - N/A   Clear
11:00 AM 41.0 °F 36.4 °F 30.2 °F 65% 30.27 in - NE 6.9 mph - N/A   Clear
11:30 AM 42.8 °F 37.0 °F 30.2 °F 61% 30.27 in - ESE 10.4 mph - N/A   Clear
12:00 PM 42.8 °F 37.0 °F 30.2 °F 61% 30.27 in - SE 10.4 mph - N/A   Clear
12:30 PM 42.8 °F 37.0 °F 30.2 °F 61% 30.27 in - SE 10.4 mph - N/A   Clear
1:00 PM 42.8 °F 35.8 °F 30.2 °F 61% 30.27 in - ESE 13.8 mph - N/A   Clear
1:30 PM 44.6 °F 38.1 °F 32.0 °F 61% 30.27 in - ESE 13.8 mph - N/A   Clear
2:00 PM 46.4 °F 40.1 °F 32.0 °F 57% 30.24 in - ESE 15.0 mph - N/A   Clear
2:30 PM 48.2 °F - 32.0 °F 54% 30.24 in - ESE 12.7 mph - N/A   Clear
3:00 PM 48.2 °F - 32.0 °F 54% 30.24 in - ESE 12.7 mph - N/A   Clear
3:30 PM 50.0 °F - 33.8 °F 54% 30.24 in - ESE 12.7 mph - N/A   Clear
4:00 PM 50.0 °F - 32.0 °F 50% 30.24 in - ESE 11.5 mph - N/A   Clear
4:30 PM 50.0 °F - 33.8 °F 54% 30.21 in - East 9.2 mph - N/A   Clear
5:00 PM 50.0 °F - 33.8 °F 54% 30.21 in - East 11.5 mph - N/A   Clear
5:30 PM 48.2 °F - 33.8 °F 58% 30.21 in - East 9.2 mph - N/A   Clear
6:00 PM 48.2 °F - 33.8 °F 58% 30.21 in - ESE 6.9 mph - N/A   Clear
6:30 PM 46.4 °F 43.5 °F 33.8 °F 62% 30.21 in - East 5.8 mph - N/A   Clear
7:00 PM 44.6 °F 41.4 °F 33.8 °F 66% 30.21 in - ENE 5.8 mph - N/A   Clear
7:30 PM 44.6 °F 42.2 °F 35.6 °F 71% 30.21 in - ENE 4.6 mph - N/A   Clear
8:00 PM 44.6 °F 42.2 °F 33.8 °F 66% 30.21 in - ENE 4.6 mph - N/A   Clear
8:30 PM 44.6 °F 42.2 °F 35.6 °F 71% 30.21 in 6.2 mi ENE 4.6 mph - N/A   Partly Cloudy
9:00 PM 46.4 °F 44.3 °F 33.8 °F 62% 30.21 in 6.2 mi ENE 4.6 mph - N/A   Partly Cloudy
10:00 PM 46.4 °F 42.9 °F 35.6 °F 66% 30.18 in - East 6.9 mph - N/A   Clear
11:00 PM 44.6 °F 41.4 °F 32.0 °F 61% 30.18 in - ESE 5.8 mph - N/A   Clear